Temperature
5 5 5 5 5 5 5 6 6 6 6 6 6 6 6 7 7 7 7 7 7 7 6 6 6 6 6 5 5 5 5 5 5 5 5 5 5 4 4 4 4 4 4
4 4 4 4 5 5 5 5 5 6 6 6 6 6 6 6 6 6 6 6 6 6 6 6 6 6 5 5 5 5 4 4 4 4 4 4 4 4 4 4 4 3 3
3 3 4 4 4 4 5 5 5 5 5 6 6 6 6 6 6 6 6 6 6 6 6 6 5 5 5 5 4 4 4 4 4 4 3 3 3 3 3 3 3 3 3
3 3 3 3 3 4 4 4 5 5 5 5 5 5 5 5 6 6 6 5 5 5 5 5 5 5 5 4 4 4 4 3 3 3 3 3 3 2 2 2 2 2 2
2 2 3 3 3 3 4 4 4 4 4 5 5 5 5 5 5 5 5 5 5 5 5 4 4 4 4 4 4 3 3 3 3 2 2 2 2 2 2 2 2 2 2
2 2 2 2 3 3 3 3 3 4 4 4 4 4 4 4 4 5 5 5 4 4 4 4 4 4 4 3 3 3 3 2 2 2 2 2 1 1 1 1 1 1 1
1 2 2 2 2 2 3 3 3 3 3 3 4 4 4 4 4 4 4 4 4 4 3 3 3 3 3 3 3 2 2 2 2 2 2 1 1 1 1 1 0 0 0
1 1 1 2 2 2 2 2 2 2 2 3 3 3 3 3 3 3 3 3 3 3 3 3 3 2 2 2 2 2 2 2 1 1 1 1 1 0 0 0 -0 -0 -0
1 1 1 1 1 1 2 2 2 2 2 2 2 2 2 3 3 3 2 2 2 2 2 2 2 2 2 2 1 1 1 1 1 1 1 0 0 0 -0 -0 -1 -1 -1
0 0 0 0 1 1 1 1 1 1 1 1 2 2 2 2 2 2 2 2 1 1 1 1 1 1 1 1 1 1 1 1 0 0 -0 -0 -0 -0 -1 -1 -1 -1 -2
-0 -0 -0 0 0 0 0 1 1 1 1 1 1 1 1 1 1 1 1 1 1 1 1 1 1 1 1 0 0 0 0 0 -0 -0 -0 -1 -1 -1 -1 -1 -2 -2 -2
-1 -1 -0 -0 -0 -0 -0 -0 0 0 0 0 0 0 0 0 1 1 1 0 0 0 0 -0 -0 -0 -0 -0 -0 -0 -0 -0 -1 -1 -1 -1 -1 -1 -2 -2 -2 -2 -3
-1 -1 -1 -1 -1 -1 -1 -1 -0 -0 -0 -0 -0 -0 -0 -0 -0 -0 -0 -0 -0 -0 -1 -1 -1 -1 -1 -1 -1 -1 -1 -1 -1 -1 -2 -2 -2 -2 -2 -3 -3 -3 -3
-2 -2 -2 -2 -1 -1 -1 -1 -1 -1 -1 -1 -1 -1 -1 -1 -1 -1 -1 -1 -1 -1 -1 -1 -1 -1 -1 -2 -2 -2 -2 -2 -2 -2 -2 -3 -3 -3 -3 -3 -3 -4 -4
-2 -2 -2 -2 -2 -2 -2 -2 -2 -2 -2 -2 -2 -2 -2 -2 -2 -2 -2 -2 -2 -2 -2 -2 -2 -2 -2 -3 -3 -3 -3 -3 -3 -3 -3 -3 -3 -4 -4 -4 -4 -4 -4
-3 -3 -3 -3 -3 -3 -3 -2 -2 -2 -2 -2 -2 -2 -2 -2 -2 -2 -2 -2 -2 -2 -2 -3 -3 -3 -3 -3 -3 -4 -4 -4 -4 -4 -4 -4 -5 -5 -5 -5 -5 -5 -5
-3 -3 -3 -3 -3 -3 -3 -3 -3 -3 -3 -3 -3 -3 -3 -3 -3 -3 -3 -3 -3 -3 -3 -3 -4 -4 -4 -4 -4 -4 -4 -5 -5 -5 -5 -5 -5 -5 -6 -6 -6 -6 -6
-3 -3 -3 -3 -3 -3 -3 -3 -3 -3 -3 -3 -4 -4 -4 -4 -4 -4 -4 -4 -4 -4 -4 -4 -4 -4 -5 -5 -5 -5 -5 -5 -5 -5 -5 -6 -6 -6 -6 -6 -6 -6 -6
-4 -4 -4 -4 -4 -4 -4 -4 -4 -4 -4 -4 -4 -4 -4 -4 -4 -4 -4 -4 -4 -4 -4 -5 -5 -5 -5 -5 -5 -5 -6 -6 -6 -6 -6 -6 -6 -6 -7 -7 -7 -7 -7
-4 -4 -4 -4 -4 -4 -4 -4 -4 -5 -5 -5 -5 -5 -5 -5 -5 -5 -5 -5 -5 -5 -5 -5 -5 -5 -5 -5 -6 -6 -6 -6 -6 -6 -6 -7 -7 -7 -7 -7 -7 -7 -7
-4 -4 -4 -4 -4 -5 -5 -5 -5 -5 -5 -5 -5 -5 -5 -5 -5 -5 -5 -5 -5 -5 -5 -5 -6 -6 -6 -6 -6 -6 -6 -7 -7 -7 -7 -7 -7 -7 -7 -7 -7 -7 -7
-4 -4 -5 -5 -5 -5 -5 -5 -5 -5 -5 -5 -5 -6 -6 -6 -5 -5 -6 -6 -6 -6 -6 -6 -6 -6 -6 -6 -6 -7 -7 -7 -7 -7 -7 -7 -7 -7 -7 -8 -8 -8 -8
-5 -5 -5 -5 -5 -5 -6 -6 -6 -6 -6 -6 -6 -6 -6 -6 -6 -6 -6 -6 -6 -6 -6 -6 -6 -6 -6 -7 -7 -7 -7 -7 -7 -7 -7 -7 -8 -8 -8 -8 -8 -8 -8
-5 -5 -5 -5 -6 -6 -6 -6 -6 -6 -6 -6 -6 -6 -6 -6 -6 -6 -6 -6 -6 -7 -7 -7 -7 -7 -7 -7 -7 -7 -7 -7 -7 -7 -8 -8 -8 -8 -8 -8 -8 -8 -8
-5 -5 -5 -6 -6 -6 -6 -6 -6 -6 -7 -7 -7 -7 -7 -7 -7 -7 -7 -7 -7 -7 -7 -7 -7 -7 -7 -7 -7 -7 -7 -7 -8 -8 -8 -8 -8 -9 -9 -9 -8 -8 -8
-5 -6 -6 -6 -6 -6 -6 -7 -7 -7 -7 -7 -7 -7 -7 -7 -7 -7 -7 -7 -7 -7 -7 -7 -7 -8 -8 -8 -8 -8 -8 -8 -8 -8 -8 -9 -9 -9 -9 -9 -9 -9 -9
Wind_Speed
5 5 6 5 5 5 5 5 5 5 6 6 6 7 7 7 7 8 8 8 8 7 6 7 6 4 4 3 3 2 2 2 3 3 1 1 1 2 3 3 4 4 5
6 5 6 5 4 4 5 5 5 6 6 6 6 6 7 7 7 8 8 8 8 8 7 7 6 5 5 4 3 3 3 2 3 4 2 2 2 2 2 2 4 4 5
6 5 5 5 4 5 5 6 6 6 6 5 5 6 6 7 7 7 7 8 8 8 8 8 7 7 6 4 4 4 3 2 2 3 3 2 1 1 2 3 3 3 5
6 5 5 5 5 5 5 5 6 6 5 5 5 5 5 6 6 6 6 6 7 7 7 7 7 8 8 7 5 5 3 2 2 2 2 2 1 1 1 2 3 2 3
6 5 5 5 5 5 4 5 5 5 5 4 4 4 4 4 5 5 5 6 6 6 6 6 6 7 8 7 5 5 5 3 2 2 2 2 2 1 2 2 3 3 3
6 5 5 5 4 4 4 4 4 4 4 3 2 3 4 3 5 6 5 5 5 6 5 5 5 6 6 6 6 7 6 5 4 3 3 3 4 3 2 2 2 2 3
5 5 4 4 4 4 4 3 3 3 3 1 1 2 3 3 4 5 5 4 5 5 5 5 4 4 4 3 4 4 4 4 5 5 4 5 4 4 3 2 2 3 3
5 5 4 4 4 4 3 3 2 2 2 1 0 0 1 2 3 5 5 4 4 4 4 5 5 5 4 4 3 2 2 2 3 3 4 4 4 3 2 2 2 2 2
5 5 5 4 3 3 3 3 2 2 1 1 0 0 1 1 4 5 4 4 3 3 3 3 4 5 6 5 4 3 2 1 1 2 2 2 1 1 1 1 0 1 2
5 5 5 3 3 3 3 2 2 1 0 0 1 1 1 1 3 4 4 3 3 2 2 2 3 4 5 5 4 4 3 3 2 2 1 1 2 1 1 1 2 1 2
5 5 4 3 2 2 1 1 1 0 1 1 1 1 1 2 2 3 4 3 3 2 2 1 2 4 3 3 2 2 3 3 3 3 2 1 1 1 1 1 1 2 2
5 4 3 3 2 1 1 1 1 1 2 2 2 2 2 2 3 3 3 4 4 3 2 1 1 3 3 3 2 3 4 4 3 2 2 1 0 1 1 1 1 1 1
5 4 4 3 2 1 1 1 1 1 1 1 2 2 2 2 3 4 4 4 4 3 3 3 3 4 5 4 5 5 5 4 3 2 2 1 0 0 1 1 2 2 3
4 4 3 3 3 3 2 1 1 1 1 1 2 1 1 2 2 2 2 3 4 4 4 5 6 7 7 6 6 5 3 3 3 2 1 1 0 0 0 1 1 2 2
4 3 3 2 2 3 3 2 2 1 1 1 1 1 2 1 2 3 3 3 3 4 4 4 3 3 4 3 3 3 3 3 3 2 2 1 1 1 1 1 1 2 2
3 2 2 2 2 2 2 3 4 3 4 4 4 3 2 3 4 4 4 5 5 6 5 4 3 3 3 2 2 2 2 2 2 1 1 1 1 1 2 2 2 2 2
2 2 1 1 1 1 1 2 2 4 5 6 6 5 5 4 4 4 5 5 6 6 4 3 2 2 2 2 1 1 1 1 1 1 1 1 1 1 1 2 2 2 2
2 2 1 1 1 1 1 1 2 2 2 3 4 5 5 5 5 5 5 5 4 4 3 2 2 2 2 1 1 1 1 1 1 1 1 1 1 1 1 1 2 2 2
1 1 1 1 1 1 1 2 2 2 2 2 2 3 4 4 5 5 5 3 2 2 2 1 1 1 1 1 1 0 0 0 0 0 0 0 1 1 1 2 2 3 3
1 1 1 1 1 1 2 2 1 1 2 1 1 1 1 2 2 3 3 2 2 1 1 1 1 1 1 1 1 0 0 0 0 0 1 1 1 1 2 2 2 2 2
1 1 1 1 1 1 1 1 1 1 1 1 1 1 2 2 2 1 1 1 1 1 1 1 1 0 0 0 1 1 0 1 1 1 1 1 1 2 2 2 2 2 2
0 0 0 0 0 1 1 1 1 1 1 1 1 1 1 2 1 1 1 0 0 0 1 1 1 0 0 1 1 1 1 1 1 1 1 1 1 2 2 2 2 2 2
0 1 1 1 0 0 1 1 1 1 1 1 1 1 1 1 1 1 1 1 1 1 1 1 1 0 0 1 2 2 2 2 2 2 2 2 2 2 2 2 2 3 3
1 1 1 1 1 0 0 0 1 1 1 1 1 1 1 1 1 0 0 1 1 1 1 0 0 1 1 2 2 2 3 4 3 3 3 3 2 2 2 2 3 3 3
1 1 1 1 1 1 0 0 0 0 1 0 0 0 0 0 0 0 0 1 1 0 0 1 1 1 2 3 3 3 4 4 4 3 3 2 2 2 2 2 2 3 3
1 1 1 1 0 1 1 1 1 0 0 0 0 0 1 1 1 0 0 0 0 0 1 1 2 2 3 3 4 4 4 5 5 4 3 2 2 2 2 2 3 3 3
Wind_Direction
296 288 282 280 273 270 267 265 266 269 259 246 239 227 221 215 210 206 209 202 203 207 203 200 206 198 193 198 196 206 217 211 236 274 283 279 267 282 298 299 300 301 303
292 286 280 278 278 272 272 272 270 268 265 254 243 231 219 213 206 207 210 204 205 205 203 199 199 191 190 191 193 204 215 219 218 250 268 267 261 276 295 306 317 306 306
295 288 280 277 274 274 276 279 277 271 271 264 245 232 221 216 210 205 204 204 205 204 200 197 196 186 192 192 192 198 207 212 221 225 252 263 276 301 321 315 311 309 314
298 286 279 278 275 272 273 277 277 275 273 268 249 237 225 218 210 202 199 199 198 197 195 195 192 191 191 188 192 194 191 187 191 215 240 258 273 295 303 304 310 314 317
302 289 284 283 282 279 279 278 276 278 284 268 247 233 226 216 207 199 195 192 188 188 187 191 193 192 190 191 191 189 183 186 192 215 232 247 253 262 264 280 292 309 311
305 293 295 293 293 292 286 283 279 284 293 275 242 231 228 224 209 199 184 180 182 179 181 182 183 184 184 186 191 190 187 187 200 218 236 233 241 246 256 267 284 308 301
301 298 299 301 303 301 296 289 289 294 292 280 259 239 228 214 199 191 176 165 166 172 174 175 177 181 170 172 184 183 193 205 210 205 219 230 234 236 231 255 265 279 282
306 304 305 310 306 305 302 296 296 294 282 272 268 274 234 198 168 159 155 144 147 159 165 170 174 176 181 171 154 164 191 217 224 214 212 227 229 223 215 226 250 291 294
310 307 304 302 301 303 300 304 312 299 296 339 354 113 117 127 128 130 122 129 133 141 151 162 170 175 183 168 151 156 181 214 228 193 197 213 218 199 161 137 175 311 304
310 304 300 297 295 291 292 308 315 293 278 94 73 83 120 123 124 123 118 123 130 133 134 163 179 179 179 176 167 166 191 211 177 148 123 73 74 95 100 164 193 240 286
311 308 312 310 296 292 323 338 348 66 93 115 103 78 92 96 101 112 113 118 138 139 148 168 190 177 173 178 167 171 192 171 149 148 142 126 80 58 27 358 254 220 240
323 322 326 329 332 2 27 16 47 81 92 96 95 69 59 64 72 88 95 111 113 121 133 143 153 143 133 120 110 108 103 106 119 126 125 118 80 353 342 352 350 329 260
328 329 333 337 350 30 51 51 53 78 97 93 96 88 60 58 69 71 84 98 100 100 109 109 105 101 93 85 83 83 84 94 108 122 132 127 150 288 350 6 13 13 357
329 332 347 6 21 32 32 44 65 83 95 96 95 94 76 67 64 59 73 92 98 93 94 95 85 79 75 73 72 67 61 76 94 97 87 87 62 52 354 328 326 337 342
343 352 3 14 38 40 36 37 46 35 72 96 114 121 117 96 62 70 89 92 106 114 108 95 82 79 73 67 66 65 62 61 64 67 71 58 43 23 353 343 333 337 329
342 346 355 11 31 50 59 48 47 52 48 60 70 74 82 90 88 89 93 98 106 112 102 99 93 89 93 92 83 65 55 55 57 67 68 49 30 19 1 353 352 345 324
335 345 358 9 26 42 64 79 61 47 51 60 63 71 75 82 88 94 98 101 98 97 90 99 99 96 93 89 84 73 45 28 36 65 65 41 18 360 352 349 349 344 329
340 352 6 15 25 35 53 67 77 76 58 49 53 67 68 71 75 79 87 89 79 66 79 100 106 104 101 100 92 73 64 52 39 36 27 13 4 343 334 321 315 314 313
348 349 353 24 46 62 67 71 77 81 80 67 50 47 49 65 70 66 70 76 92 88 80 85 100 112 111 108 95 81 78 43 0 345 320 323 326 318 309 305 305 310 320
332 344 13 47 65 68 78 87 95 104 105 101 87 63 55 68 69 51 49 66 84 94 100 103 89 98 115 120 122 131 95 316 307 291 284 294 292 286 286 293 297 304 307
334 338 16 49 57 67 88 105 122 129 133 127 118 123 110 104 104 90 71 63 83 113 113 115 108 92 112 135 149 167 212 265 277 279 272 268 265 276 282 282 285 291 300
76 67 65 82 82 76 93 120 126 131 135 128 91 101 106 84 94 96 82 53 70 128 136 143 155 187 226 218 207 211 237 260 261 257 263 266 272 276 279 282 291 297 299
120 116 103 72 91 144 80 79 101 114 116 119 117 111 105 102 101 99 86 73 84 87 91 126 144 144 313 267 240 222 232 247 252 247 255 264 267 273 274 272 278 287 290
151 154 148 125 105 112 112 102 107 109 109 109 105 116 122 126 119 100 110 114 102 68 68 109 189 227 273 288 277 260 254 259 254 245 236 248 261 272 273 273 270 273 279
111 122 137 157 170 176 170 170 166 146 145 158 154 143 161 175 168 142 126 119 104 71 5 319 268 257 268 277 279 275 281 287 278 257 242 237 244 253 258 266 273 279 277
106 108 104 107 137 166 180 198 215 203 200 213 185 170 178 181 176 161 140 126 97 338 323 304 286 281 281 281 282 288 297 295 291 286 265 228 237 252 253 260 268 276 277
Height
1465 1465 1464 1464 1464 1465 1465 1465 1465 1465 1465 1465 1465 1465 1465 1466 1467 1469 1472 1474 1476 1478 1480 1482 1484 1486 1487 1488 1489 1490 1491 1491 1490 1490 1491 1491 1491 1491 1490 1489 1489 1487 1486
1460 1459 1459 1459 1459 1459 1459 1459 1459 1459 1459 1459 1459 1458 1458 1459 1461 1463 1465 1467 1469 1471 1473 1475 1477 1480 1481 1483 1484 1485 1486 1486 1486 1485 1485 1486 1486 1486 1485 1485 1484 1483 1482
1455 1454 1454 1453 1453 1453 1453 1454 1454 1454 1454 1453 1452 1452 1452 1454 1455 1457 1460 1462 1464 1466 1467 1469 1471 1474 1475 1477 1479 1480 1481 1481 1482 1481 1481 1481 1481 1481 1481 1480 1479 1478 1478
1450 1449 1448 1448 1448 1448 1448 1448 1448 1448 1448 1447 1447 1447 1447 1449 1450 1452 1454 1456 1458 1460 1462 1464 1466 1468 1469 1472 1473 1475 1476 1476 1477 1477 1477 1477 1477 1476 1476 1475 1474 1473 1472
1446 1444 1443 1443 1444 1444 1443 1443 1443 1443 1443 1443 1442 1442 1443 1444 1445 1446 1448 1450 1452 1454 1456 1458 1460 1462 1465 1467 1468 1470 1471 1471 1472 1473 1472 1472 1472 1472 1472 1471 1469 1468 1467
1442 1440 1440 1439 1439 1439 1439 1439 1439 1438 1438 1438 1438 1438 1439 1439 1440 1442 1443 1445 1447 1449 1451 1453 1455 1458 1459 1461 1463 1465 1466 1467 1468 1468 1468 1468 1468 1468 1468 1467 1466 1464 1462
1438 1437 1436 1436 1435 1435 1435 1434 1434 1434 1434 1433 1434 1434 1435 1435 1436 1438 1439 1441 1443 1445 1447 1448 1451 1453 1455 1457 1458 1460 1461 1462 1464 1464 1464 1463 1464 1464 1463 1462 1462 1461 1459
1435 1433 1433 1432 1431 1431 1430 1430 1430 1430 1430 1430 1430 1430 1431 1432 1433 1435 1436 1437 1439 1442 1443 1445 1447 1448 1450 1452 1453 1454 1456 1457 1458 1459 1459 1460 1460 1460 1459 1459 1458 1457 1456
1432 1430 1429 1428 1427 1427 1426 1426 1426 1427 1427 1427 1427 1428 1429 1430 1430 1432 1433 1434 1436 1438 1440 1442 1443 1444 1446 1448 1449 1450 1450 1452 1453 1454 1455 1456 1456 1456 1455 1455 1454 1453 1451
1429 1427 1426 1425 1424 1423 1423 1423 1423 1424 1424 1425 1425 1426 1427 1428 1429 1431 1432 1432 1433 1435 1437 1439 1440 1441 1442 1444 1444 1445 1445 1446 1447 1449 1450 1451 1451 1451 1451 1451 1450 1449 1448
1426 1425 1424 1423 1422 1421 1420 1421 1421 1421 1422 1422 1423 1425 1426 1426 1427 1429 1430 1431 1431 1432 1434 1436 1437 1438 1439 1440 1440 1440 1440 1441 1442 1444 1445 1446 1447 1447 1447 1447 1447 1446 1445
1423 1422 1421 1420 1419 1419 1419 1419 1419 1419 1420 1421 1421 1422 1424 1425 1426 1427 1428 1429 1430 1431 1432 1433 1434 1435 1436 1436 1437 1437 1437 1438 1439 1440 1441 1442 1443 1443 1443 1443 1443 1442 1442
1422 1420 1418 1417 1417 1417 1417 1417 1417 1418 1419 1419 1419 1420 1422 1423 1424 1425 1427 1428 1429 1429 1430 1432 1432 1433 1433 1434 1434 1434 1435 1435 1436 1437 1437 1438 1439 1440 1440 1440 1439 1439 1438
1420 1418 1416 1415 1415 1415 1416 1416 1417 1417 1418 1418 1419 1420 1421 1422 1423 1424 1425 1426 1427 1428 1429 1430 1431 1431 1432 1432 1432 1433 1433 1433 1433 1434 1435 1435 1436 1436 1436 1436 1436 1435 1434
1418 1417 1416 1415 1414 1414 1415 1416 1416 1417 1418 1418 1419 1419 1420 1421 1422 1424 1424 1425 1425 1426 1427 1428 1429 1429 1430 1430 1431 1431 1432 1432 1432 1432 1433 1433 1433 1433 1433 1434 1433 1432 1432
1418 1416 1415 1415 1414 1414 1415 1416 1417 1418 1418 1419 1419 1420 1420 1421 1422 1423 1424 1424 1425 1426 1426 1426 1427 1428 1428 1429 1429 1429 1430 1430 1430 1431 1431 1431 1431 1431 1431 1431 1431 1430 1430
1417 1415 1415 1414 1414 1414 1415 1415 1415 1417 1418 1418 1418 1419 1420 1421 1422 1423 1423 1424 1425 1425 1425 1425 1426 1427 1427 1428 1428 1428 1428 1429 1429 1429 1430 1430 1429 1429 1429 1429 1429 1428 1428
1416 1415 1414 1414 1414 1414 1414 1414 1415 1415 1416 1417 1419 1419 1420 1421 1422 1422 1423 1423 1423 1424 1424 1425 1425 1426 1426 1427 1427 1427 1428 1428 1428 1428 1428 1428 1428 1428 1428 1427 1427 1427 1426
1416 1415 1414 1414 1414 1413 1414 1414 1415 1415 1416 1417 1418 1419 1420 1421 1421 1422 1422 1422 1422 1423 1423 1424 1424 1425 1425 1426 1426 1426 1426 1426 1426 1426 1426 1426 1426 1426 1426 1426 1425 1425 1424
1415 1415 1414 1414 1413 1413 1413 1414 1414 1415 1416 1417 1417 1418 1419 1420 1420 1420 1421 1422 1422 1422 1423 1423 1424 1424 1424 1424 1425 1425 1425 1424 1424 1424 1424 1424 1424 1424 1424 1424 1423 1423 1422
1415 1415 1414 1413 1413 1413 1413 1413 1414 1415 1415 1416 1417 1417 1418 1419 1419 1420 1420 1421 1421 1421 1422 1422 1423 1423 1423 1423 1423 1423 1423 1422 1422 1422 1422 1422 1422 1422 1422 1421 1421 1420 1419
1415 1414 1414 1413 1413 1413 1413 1413 1414 1414 1415 1415 1416 1416 1417 1418 1419 1419 1420 1420 1420 1421 1421 1421 1421 1422 1422 1422 1421 1421 1421 1420 1420 1420 1420 1420 1420 1419 1419 1419 1419 1418 1417
1414 1414 1413 1413 1413 1413 1413 1413 1413 1414 1414 1415 1415 1415 1416 1417 1417 1418 1418 1419 1419 1420 1420 1420 1420 1420 1420 1420 1420 1419 1419 1418 1418 1418 1418 1418 1417 1417 1417 1417 1416 1415 1415
1413 1413 1413 1412 1412 1412 1412 1413 1413 1413 1414 1414 1414 1415 1415 1415 1416 1417 1417 1418 1418 1418 1418 1418 1418 1418 1418 1418 1418 1417 1417 1417 1417 1416 1416 1415 1415 1415 1414 1414 1413 1413 1412
1413 1412 1412 1412 1412 1412 1412 1412 1412 1413 1413 1413 1413 1414 1414 1415 1415 1415 1416 1416 1416 1417 1417 1416 1416 1416 1416 1416 1415 1415 1415 1415 1415 1414 1414 1413 1413 1412 1412 1411 1411 1410 1410
1412 1412 1411 1411 1411 1411 1411 1411 1412 1412 1412 1412 1412 1413 1413 1413 1414 1414 1414 1415 1415 1415 1415 1415 1415 1414 1414 1414 1414 1413 1413 1413 1412 1412 1412 1411 1410 1410 1409 1408 1408 1407 1407